EHI
0 0 0 0 0 0 0 0 0 1 2 4 6 11 15 18 20 24 25 24 23 21 16 11 9 9 7 6 5 3 2 1 0 0 0 0 0 0 0 0 1 2 2 2
0 0 0 0 0 0 0 0 0 0 1 2 5 10 14 16 18 21 23 22 21 19 15 12 9 7 6 6 5 3 1 0 0 0 0 0 0 0 0 0 0 1 1 1
0 0 0 0 0 0 0 0 0 0 0 1 3 6 10 13 15 17 19 17 16 17 15 13 9 5 5 6 5 3 1 1 2 2 1 1 0 0 0 0 0 0 0 0
0 0 0 0 0 0 0 0 0 1 0 0 1 2 6 11 13 15 16 15 14 15 16 15 10 5 4 5 4 2 1 2 3 3 2 1 0 0 0 0 0 0 0 0
0 0 0 0 0 0 0 0 0 0 0 0 0 1 3 8 11 13 15 14 14 13 14 15 11 6 5 5 4 2 1 1 3 3 2 1 0 0 0 0 0 0 0 0
0 0 0 0 0 0 0 0 0 0 0 0 0 0 1 4 6 10 13 14 13 13 13 12 9 5 4 3 2 1 0 1 2 2 1 0 0 0 0 0 0 0 0 0
0 0 0 0 0 0 0 0 0 0 0 0 0 0 0 1 2 6 10 13 13 14 14 11 6 2 1 1 1 0 0 0 1 1 0 0 0 0 0 0 0 0 0 0
0 0 0 0 0 0 0 0 0 0 0 0 0 0 0 0 0 2 6 9 11 15 15 10 4 1 0 1 1 0 0 0 0 0 0 0 0 0 0 0 0 0 0 0
0 0 0 0 0 0 0 0 0 0 0 0 0 0 0 0 0 1 3 6 9 12 12 8 3 1 1 2 2 1 0 0 0 0 0 0 0 0 0 0 0 0 0 0
0 0 0 0 0 0 0 0 0 0 0 0 0 0 0 0 0 0 2 4 6 7 8 6 4 2 2 3 3 1 0 0 0 0 0 0 0 0 0 0 0 0 0 0
0 0 0 0 0 0 0 0 0 0 0 0 0 0 0 0 0 0 1 2 3 4 6 6 5 4 4 5 4 1 0 0 0 0 0 0 0 0 0 0 0 0 0 0
0 0 0 0 0 0 0 0 0 0 0 0 0 0 0 0 0 0 0 0 1 3 5 6 5 5 5 6 5 3 1 0 0 0 0 0 0 0 0 0 0 0 0 0
0 0 0 0 0 0 0 0 0 0 0 0 0 0 0 0 0 0 0 0 1 3 4 5 5 6 6 6 5 3 1 0 0 0 0 0 0 0 0 0 0 0 0 0
0 0 0 0 0 0 0 0 0 0 0 0 0 0 0 0 0 0 0 0 1 2 4 5 6 6 6 6 5 2 0 0 0 0 0 0 0 0 0 0 0 0 0 0
0 0 0 0 0 0 0 0 0 0 0 0 0 0 0 0 0 0 0 0 1 2 4 6 6 6 6 6 4 1 0 0 0 0 0 0 0 0 0 0 0 0 0 0
0 0 0 0 0 0 0 0 0 0 0 0 0 0 0 0 0 0 0 1 1 1 3 5 6 6 6 4 2 0 0 0 0 0 0 0 0 0 0 0 0 0 0 0
0 0 0 0 0 0 0 0 0 0 0 0 0 0 0 0 0 0 0 1 1 1 2 3 5 5 4 2 0 0 0 0 0 0 0 0 0 0 0 0 0 0 0 0
0 0 0 0 0 0 0 0 0 0 0 0 0 0 0 0 0 0 0 1 1 0 0 1 2 3 2 0 0 0 0 0 0 0 0 0 0 0 0 0 0 0 0 0
0 0 0 0 0 0 0 0 0 0 0 0 0 0 0 0 0 0 0 0 0 0 0 0 1 1 0 0 0 0 0 0 0 0 0 0 0 0 0 0 0 0 0 0
0 0 0 0 0 0 0 0 0 0 0 0 0 0 0 0 0 0 0 0 0 0 0 0 0 0 0 0 0 0 0 0 0 0 0 0 0 0 0 0 0 0 0 0
0 0 0 0 0 0 0 0 0 0 0 0 0 0 0 0 0 0 0 0 0 0 0 0 0 0 0 0 0 0 0 0 0 0 0 0 0 0 0 0 0 0 0 0
0 0 0 0 0 0 0 0 0 0 0 0 0 0 0 0 0 0 0 0 0 0 0 0 0 0 0 0 0 0 0 0 0 0 0 0 0 0 0 0 0 0 0 0
0 0 0 0 0 0 0 0 0 0 0 0 0 0 0 0 0 0 0 0 0 0 0 0 0 0 0 0 0 0 0 0 0 0 0 0 0 0 0 0 0 0 0 0
0 0 0 0 0 0 0 0 0 0 0 0 0 0 0 0 0 0 0 0 0 0 0 0 0 0 0 0 0 0 0 0 0 0 0 0 0 0 0 0 0 0 0 0
0 0 0 0 0 0 0 0 0 0 0 0 0 0 0 0 0 0 0 0 0 0 0 0 0 0 0 0 0 0 0 0 0 0 0 0 0 0 0 0 0 0 0 0
0 0 0 0 0 0 0 0 0 0 0 0 0 0 0 0 0 0 0 0 0 0 0 0 0 0 0 0 0 0 0 0 0 0 0 0 0 0 0 0 0 0 0 0
Wind_Speed
3 5 1 4 5 3 3 2 0 2 2 4 4 4 7 7 7 8 7 7 7 6 5 5 4 5 5 4 4 4 4 3 3 2 2 2 2 2 2 3 4 4 4 3
5 2 4 4 3 3 3 2 0 1 1 3 3 3 5 7 8 8 8 8 7 6 5 5 4 4 4 4 4 4 4 3 2 2 1 1 2 1 1 2 4 4 4 4
3 5 2 3 3 3 2 4 4 2 3 4 5 1 2 3 4 4 6 6 7 8 8 6 5 4 3 3 3 3 3 3 3 3 3 3 2 2 2 3 3 4 4 4
3 4 2 3 3 5 3 5 5 4 4 1 3 2 4 4 4 6 7 7 7 7 7 7 6 5 3 3 3 4 4 4 4 3 3 3 2 1 1 1 2 3 4 4
3 2 2 2 4 6 5 2 4 3 4 3 2 2 5 2 5 9 9 8 7 7 8 8 7 6 5 4 4 4 5 4 4 3 3 3 3 1 1 1 3 3 4 4
5 2 3 4 1 4 4 6 6 6 5 2 2 3 5 5 7 6 7 8 8 8 8 7 6 6 5 4 4 4 4 4 3 3 3 3 3 2 2 2 3 3 3 3
5 3 2 2 2 2 4 6 4 4 4 3 1 3 7 5 4 6 7 8 8 8 8 8 8 7 5 5 4 3 4 3 2 3 3 2 2 2 2 1 1 2 2 2
1 4 2 1 4 4 3 8 7 4 4 3 1 4 5 2 2 1 4 6 7 8 8 8 8 7 5 4 4 3 4 3 2 3 2 3 3 2 1 1 1 1 1 1
4 4 3 1 2 7 5 3 5 7 2 1 4 4 4 0 1 2 4 6 7 8 8 8 8 6 5 5 4 4 4 3 3 2 2 3 2 2 1 1 1 1 1 1
6 2 3 2 4 4 4 7 6 6 5 3 3 4 4 4 4 3 4 6 7 8 8 8 6 6 5 4 4 3 4 3 3 2 2 2 2 2 2 2 2 2 2 2
4 3 3 2 1 3 3 4 5 4 5 6 3 7 4 6 7 7 6 6 7 8 8 7 6 5 5 4 4 4 3 3 3 2 2 3 2 2 2 2 2 2 2 2
3 5 1 4 3 1 3 5 7 5 4 4 4 7 3 2 4 6 6 5 6 7 7 7 6 6 5 5 4 4 3 3 2 2 3 2 2 2 3 3 2 2 2 2
5 5 2 6 5 2 2 2 3 5 5 4 4 6 1 2 4 4 6 7 7 7 7 6 6 6 6 5 4 3 3 2 2 2 3 2 2 2 2 2 2 2 2 2
6 4 6 6 6 3 1 2 4 5 4 4 6 6 3 3 4 4 5 6 7 7 7 7 6 6 5 5 4 4 3 3 3 3 3 2 1 1 1 2 2 2 2 2
5 3 3 3 3 2 2 2 4 4 6 6 6 6 6 7 7 7 6 7 7 7 7 8 7 6 6 5 5 4 4 3 3 3 2 1 0 1 1 2 2 2 2 3
3 3 2 1 2 1 1 1 1 2 3 3 2 4 2 4 5 6 7 8 8 7 7 7 7 7 7 6 6 5 4 3 3 3 2 1 1 1 1 1 2 2 3 3
2 4 3 2 3 1 2 3 2 2 1 3 5 4 4 5 7 7 7 7 7 6 6 7 7 7 7 6 6 6 5 4 3 2 2 1 1 0 0 1 1 2 2 2
6 4 3 1 1 3 5 2 2 3 1 1 1 3 5 5 4 3 4 6 6 6 6 6 6 6 5 5 5 5 4 4 3 2 2 1 1 0 0 1 1 1 1 2
4 6 4 3 2 3 3 1 2 3 1 1 3 4 4 6 5 1 2 4 5 6 5 5 5 5 5 6 6 5 4 4 3 2 2 1 1 1 0 0 1 1 1 2
4 4 5 3 3 4 5 1 2 3 2 2 5 7 7 6 3 3 3 4 5 5 5 5 5 5 5 5 6 6 4 3 3 3 2 2 1 2 2 1 1 1 1 2
3 3 3 3 3 6 4 1 2 2 5 2 5 7 7 5 4 3 5 5 5 5 5 6 6 5 5 5 6 5 4 4 3 2 2 1 1 1 2 1 0 1 1 2
5 4 3 4 2 6 2 3 4 5 1 4 5 5 5 4 4 5 6 6 7 6 5 5 5 4 3 5 6 5 4 3 2 2 2 1 1 1 1 1 0 1 1 1
4 6 5 6 6 4 2 2 1 3 3 3 5 4 6 5 4 5 6 6 6 6 5 5 5 4 3 3 5 5 4 3 3 3 2 1 0 0 0 1 1 1 1 1
1 2 3 1 2 1 1 0 1 2 3 3 5 6 6 5 6 6 6 5 5 5 5 5 5 5 3 3 3 4 3 3 4 3 2 1 1 0 1 1 1 1 2 2
3 3 3 1 2 1 1 1 3 4 5 6 4 4 6 8 7 7 6 6 5 5 4 5 5 5 4 3 3 3 3 4 3 2 1 1 1 1 1 2 2 3 4 4
3 5 6 6 6 5 3 3 4 5 5 6 6 5 5 6 8 7 6 5 5 5 4 5 4 4 4 3 3 3 3 4 4 2 1 1 1 1 1 2 3 4 5 7
Wind_Direction
70 75 161 210 190 170 143 129 209 254 185 138 163 162 172 173 172 173 175 176 172 160 135 121 113 112 101 89 85 80 84 73 81 82 83 77 59 28 24 22 19 18 17 16
46 294 229 190 171 151 140 110 314 336 67 127 133 150 176 182 191 187 185 187 180 159 140 128 116 104 107 105 96 85 84 80 76 82 88 95 96 58 35 11 15 16 15 16
179 240 192 151 163 156 188 180 197 184 69 65 100 69 202 208 194 190 190 184 178 171 163 153 134 121 108 103 95 86 73 69 67 75 86 77 57 39 23 12 4 0 14 20
237 252 184 173 194 160 234 219 180 154 118 99 121 197 248 209 208 212 203 190 187 176 160 150 141 136 130 109 87 80 74 70 66 73 92 100 97 83 10 348 353 355 16 21
256 219 174 198 215 166 202 130 123 122 121 89 52 147 272 186 223 228 216 198 185 169 157 152 149 145 129 107 97 90 84 72 66 69 86 96 94 96 60 28 26 15 11 19
247 248 203 208 193 154 137 71 57 55 77 101 211 166 256 217 219 225 207 190 175 161 152 142 133 127 114 105 101 95 93 78 72 80 82 93 101 93 73 40 27 14 4 3
332 318 280 163 101 64 92 87 39 9 20 250 227 180 242 243 229 217 197 182 168 161 155 148 145 139 136 134 130 118 104 86 75 91 93 95 96 89 82 54 29 19 4 353
327 303 279 197 172 168 152 137 155 186 209 266 302 229 252 277 281 202 169 158 157 160 156 153 149 147 150 144 131 121 112 94 77 80 82 82 83 81 62 46 38 8 341 321
188 262 286 234 159 135 134 148 154 128 139 197 267 272 293 121 51 105 133 147 158 159 155 150 148 149 150 144 135 131 119 102 89 80 77 76 79 81 61 32 25 6 347 345
173 239 299 308 72 43 126 139 104 120 149 226 274 260 243 221 211 181 165 162 155 148 147 146 148 146 145 141 129 116 113 113 101 89 83 89 71 62 50 41 23 10 360 8
156 164 312 15 144 175 111 102 106 114 150 159 230 262 234 209 195 188 184 173 157 155 157 153 149 143 139 130 124 118 114 109 103 98 89 74 52 39 37 36 17 7 5 9
144 125 254 276 274 193 151 158 147 152 195 174 184 261 303 214 180 171 170 163 152 152 152 146 142 139 140 141 137 135 132 127 126 114 95 74 54 46 40 27 9 13 14 6
133 110 53 344 345 4 82 128 137 124 120 155 179 258 357 86 118 146 159 157 153 149 143 137 140 149 155 154 148 144 141 139 127 114 100 77 57 52 38 16 3 11 13 5
114 115 161 199 226 231 213 176 153 130 148 196 219 230 231 179 164 164 160 156 153 153 151 151 156 162 160 159 157 153 151 146 135 123 115 103 72 54 38 22 17 13 11 4
108 147 206 236 248 218 220 210 183 180 186 192 227 215 223 200 183 173 163 154 155 162 166 168 168 169 165 162 160 158 156 154 145 133 133 144 102 59 48 32 15 11 15 13
98 148 155 314 297 237 295 296 214 209 189 200 212 247 220 147 136 150 162 166 173 176 175 173 174 173 172 169 166 160 159 160 151 150 163 165 119 66 37 11 8 17 14 11
117 134 129 245 296 13 291 264 227 197 191 176 207 226 147 145 163 169 172 172 174 170 168 173 180 179 178 173 165 165 164 157 154 157 160 165 151 127 329 4 25 14 1 4
133 116 124 142 66 235 250 259 172 142 170 192 174 151 158 160 148 144 154 162 165 166 169 175 177 172 164 154 151 153 150 152 155 158 172 178 167 170 18 36 20 353 345 348
137 133 122 126 169 278 286 248 159 148 267 205 153 136 120 113 88 63 156 156 164 165 162 162 157 148 146 150 152 145 146 148 154 173 189 198 186 182 164 358 336 333 340 337
69 99 116 129 158 235 248 247 171 112 286 202 150 150 146 131 145 227 174 144 139 138 139 138 135 130 140 150 143 141 149 157 180 197 204 198 182 182 199 231 288 316 321 314
68 67 118 149 199 259 258 237 123 159 246 176 155 159 155 167 186 173 141 134 136 133 134 135 136 141 155 150 141 146 156 184 201 191 180 170 171 185 197 209 258 303 332 337
164 152 167 147 185 254 264 134 173 209 182 140 150 155 148 137 121 127 133 133 133 129 128 134 138 145 150 147 145 152 177 190 164 152 156 163 174 199 165 167 300 329 350 337
180 185 178 180 207 245 261 204 204 150 145 157 152 149 139 133 138 136 136 137 139 137 137 136 140 141 142 154 157 167 188 166 146 140 152 161 125 33 165 189 249 307 307 295
214 147 133 176 262 274 298 66 85 128 144 147 143 145 144 144 145 138 138 140 140 140 140 136 136 142 152 166 172 181 178 157 149 156 170 169 156 316 320 267 232 239 255 265
205 147 134 192 239 66 10 123 119 97 105 114 115 133 143 138 140 144 146 149 151 145 138 142 149 156 169 172 177 179 166 151 151 159 173 185 200 232 282 286 251 240 240 228
199 176 172 209 206 177 199 172 135 121 128 135 125 118 124 137 143 144 149 150 147 146 141 144 151 158 170 171 178 184 169 159 157 167 194 216 237 258 270 292 306 270 248 259